Year,Month,Day,Hour,Minute,Value (Times are PST for temperature in C)
2012,06,06,00,00,8.70
2012,06,06,00,01,8.70
2012,06,06,00,02,8.70
2012,06,06,00,03,8.70
2012,06,06,00,04,8.70
2012,06,06,00,05,8.70
2012,06,06,00,06,8.70
2012,06,06,00,07,8.70
2012,06,06,00,08,8.70
2012,06,06,00,09,8.70
2012,06,06,00,10,8.70
2012,06,06,00,11,8.70
2012,06,06,00,12,8.70
2012,06,06,00,13,8.70
2012,06,06,00,14,8.60
2012,06,06,00,15,8.60
2012,06,06,00,16,8.60
2012,06,06,00,17,8.60
2012,06,06,00,18,8.60
2012,06,06,00,19,8.50
2012,06,06,00,20,8.50
2012,06,06,00,21,8.50
2012,06,06,00,22,8.40
2012,06,06,00,23,8.40
2012,06,06,00,24,8.40
2012,06,06,00,25,8.40
2012,06,06,00,26,8.30
2012,06,06,00,27,8.30
2012,06,06,00,28,8.30
2012,06,06,00,29,8.20
2012,06,06,00,30,8.20
2012,06,06,00,31,8.20
2012,06,06,00,32,8.20
2012,06,06,00,33,8.20
2012,06,06,00,34,8.20
2012,06,06,00,35,8.20
2012,06,06,00,36,8.20
2012,06,06,00,37,8.20
2012,06,06,00,38,8.20
2012,06,06,00,39,8.20
2012,06,06,00,40,8.20
2012,06,06,00,41,8.20
2012,06,06,00,42,8.20
2012,06,06,00,43,8.20
2012,06,06,00,44,8.20
2012,06,06,00,45,8.20
2012,06,06,00,46,8.20
2012,06,06,00,47,8.20
2012,06,06,00,48,8.20
2012,06,06,00,49,8.20
2012,06,06,00,50,8.20
2012,06,06,00,51,8.20
2012,06,06,00,52,8.20
2012,06,06,00,53,8.20
2012,06,06,00,54,8.20
2012,06,06,00,55,8.20
2012,06,06,00,56,8.30
2012,06,06,00,57,8.30
2012,06,06,00,58,8.30
2012,06,06,00,59,8.30
2012,06,06,01,00,8.30
2012,06,06,01,01,8.30
2012,06,06,01,02,8.30
2012,06,06,01,03,8.30
2012,06,06,01,04,8.30
2012,06,06,01,05,8.30
2012,06,06,01,06,8.30
2012,06,06,01,07,8.30
2012,06,06,01,08,8.30
2012,06,06,01,09,8.30
2012,06,06,01,10,8.30
2012,06,06,01,11,8.30
2012,06,06,01,12,8.30
2012,06,06,01,13,8.40
2012,06,06,01,14,8.40
2012,06,06,01,15,8.40
2012,06,06,01,16,8.40
2012,06,06,01,17,8.40
2012,06,06,01,18,8.40
2012,06,06,01,19,8.40
2012,06,06,01,20,8.40
2012,06,06,01,21,8.40
2012,06,06,01,22,8.40
2012,06,06,01,23,8.40
2012,06,06,01,24,8.40
2012,06,06,01,25,8.40
2012,06,06,01,26,8.40
2012,06,06,01,27,8.40
2012,06,06,01,28,8.40
2012,06,06,01,29,8.40
2012,06,06,01,30,8.40
2012,06,06,01,31,8.40
2012,06,06,01,32,8.40
2012,06,06,01,33,8.40
2012,06,06,01,34,8.40
2012,06,06,01,35,8.40
2012,06,06,01,36,8.40
2012,06,06,01,37,8.30
2012,06,06,01,38,8.30
2012,06,06,01,39,8.30
2012,06,06,01,40,8.30
2012,06,06,01,41,8.30
2012,06,06,01,42,8.30
2012,06,06,01,43,8.30
2012,06,06,01,44,8.30
2012,06,06,01,45,8.30
2012,06,06,01,46,8.30
2012,06,06,01,47,8.30
2012,06,06,01,48,8.20
2012,06,06,01,49,8.20
2012,06,06,01,50,8.20
2012,06,06,01,51,8.20
2012,06,06,01,52,8.20
2012,06,06,01,53,8.10
2012,06,06,01,54,8.10
2012,06,06,01,55,8.10
2012,06,06,01,56,8.00
2012,06,06,01,57,8.00
2012,06,06,01,58,8.00
2012,06,06,01,59,8.00
2012,06,06,02,00,7.90
2012,06,06,02,01,7.90
2012,06,06,02,02,7.80
2012,06,06,02,03,7.80
2012,06,06,02,04,7.80
2012,06,06,02,05,7.80
2012,06,06,02,06,7.80
2012,06,06,02,07,7.70
2012,06,06,02,08,7.70
2012,06,06,02,09,7.70
2012,06,06,02,10,7.70
2012,06,06,02,11,7.70
2012,06,06,02,12,7.60
2012,06,06,02,13,7.60
2012,06,06,02,14,7.60
2012,06,06,02,15,7.60
2012,06,06,02,16,7.60
2012,06,06,02,17,7.60
2012,06,06,02,18,7.50
2012,06,06,02,19,7.50
2012,06,06,02,20,7.50
2012,06,06,02,21,7.50
2012,06,06,02,22,7.50
2012,06,06,02,23,7.50
2012,06,06,02,24,7.50
2012,06,06,02,25,7.50
2012,06,06,02,26,7.50
2012,06,06,02,27,7.50
2012,06,06,02,28,7.60
2012,06,06,02,29,7.60
2012,06,06,02,30,7.60
2012,06,06,02,31,7.60
2012,06,06,02,32,7.60
2012,06,06,02,33,7.70
2012,06,06,02,34,7.70
2012,06,06,02,35,7.70
2012,06,06,02,36,7.80
2012,06,06,02,37,7.80
2012,06,06,02,38,7.80
2012,06,06,02,39,7.80
2012,06,06,02,40,7.80
2012,06,06,02,41,7.80
2012,06,06,02,42,7.80
2012,06,06,02,43,7.80
2012,06,06,02,44,7.80
2012,06,06,02,45,7.80
2012,06,06,02,46,7.80
2012,06,06,02,47,7.80
2012,06,06,02,48,7.80
2012,06,06,02,49,7.80
2012,06,06,02,50,7.80
2012,06,06,02,51,7.70
2012,06,06,02,52,7.70
2012,06,06,02,53,7.70
2012,06,06,02,54,7.70
2012,06,06,02,55,7.70
2012,06,06,02,56,7.70
2012,06,06,02,57,7.70
2012,06,06,02,58,7.70
2012,06,06,02,59,7.60
2012,06,06,03,00,7.60
2012,06,06,03,01,7.60
2012,06,06,03,02,7.50
2012,06,06,03,03,7.50
2012,06,06,03,04,7.50
2012,06,06,03,05,7.40
2012,06,06,03,06,7.40
2012,06,06,03,07,7.30
2012,06,06,03,08,7.30
2012,06,06,03,09,7.30
2012,06,06,03,10,7.30
2012,06,06,03,11,7.30
2012,06,06,03,12,7.30
2012,06,06,03,13,7.30
2012,06,06,03,14,7.30
2012,06,06,03,15,7.30
2012,06,06,03,16,7.30
2012,06,06,03,17,7.20
2012,06,06,03,18,7.20
2012,06,06,03,19,7.20
2012,06,06,03,20,7.20
2012,06,06,03,21,7.20
2012,06,06,03,22,7.10
2012,06,06,03,23,7.10
2012,06,06,03,24,7.10
2012,06,06,03,25,7.20
2012,06,06,03,26,7.20
2012,06,06,03,27,7.20
2012,06,06,03,28,7.20
2012,06,06,03,29,7.20
2012,06,06,03,30,7.20
2012,06,06,03,31,7.10
2012,06,06,03,32,7.10
2012,06,06,03,33,7.10
2012,06,06,03,34,7.00
2012,06,06,03,35,6.90
2012,06,06,03,36,6.80
2012,06,06,03,37,6.70
2012,06,06,03,38,6.60
2012,06,06,03,39,6.60
2012,06,06,03,40,6.50
2012,06,06,03,41,6.40
2012,06,06,03,42,6.40
2012,06,06,03,43,6.30
2012,06,06,03,44,6.20
2012,06,06,03,45,6.20
2012,06,06,03,46,6.20
2012,06,06,03,47,6.20
2012,06,06,03,48,6.20
2012,06,06,03,49,6.20
2012,06,06,03,50,6.30
2012,06,06,03,51,6.30
2012,06,06,03,52,6.30
2012,06,06,03,53,6.30
2012,06,06,03,54,6.30
2012,06,06,03,55,6.30
2012,06,06,03,56,6.30
2012,06,06,03,57,6.30
2012,06,06,03,58,6.40
2012,06,06,03,59,6.40
2012,06,06,04,00,6.40
2012,06,06,04,01,6.40
2012,06,06,04,02,6.40
2012,06,06,04,03,6.40
2012,06,06,04,04,6.40
2012,06,06,04,05,6.40
2012,06,06,04,06,6.40
2012,06,06,04,07,6.40
2012,06,06,04,08,6.40
2012,06,06,04,09,6.40
2012,06,06,04,10,6.50
2012,06,06,04,11,6.60
2012,06,06,04,12,6.60
2012,06,06,04,13,6.60
2012,06,06,04,14,6.60
2012,06,06,04,15,6.70
2012,06,06,04,16,6.70
2012,06,06,04,17,6.70
2012,06,06,04,18,6.70
2012,06,06,04,19,6.70
2012,06,06,04,20,6.70
2012,06,06,04,21,6.70
2012,06,06,04,22,6.70
2012,06,06,04,23,6.70
2012,06,06,04,24,6.70
2012,06,06,04,25,6.70
2012,06,06,04,26,6.70
2012,06,06,04,27,6.70
2012,06,06,04,28,6.70
2012,06,06,04,29,6.70
2012,06,06,04,30,6.70
2012,06,06,04,31,6.70
2012,06,06,04,32,6.70
2012,06,06,04,33,6.80
2012,06,06,04,34,6.80
2012,06,06,04,35,6.80
2012,06,06,04,36,6.80
2012,06,06,04,37,6.80
2012,06,06,04,38,6.80
2012,06,06,04,39,6.80
2012,06,06,04,40,6.80
2012,06,06,04,41,6.80
2012,06,06,04,42,6.80
2012,06,06,04,43,6.70
2012,06,06,04,44,6.70
2012,06,06,04,45,6.70
2012,06,06,04,46,6.60
2012,06,06,04,47,6.60
2012,06,06,04,48,6.60
2012,06,06,04,49,6.60
2012,06,06,04,50,6.50
2012,06,06,04,51,6.40
2012,06,06,04,52,6.40
2012,06,06,04,53,6.40
2012,06,06,04,54,6.40
2012,06,06,04,55,6.40
2012,06,06,04,56,6.30
2012,06,06,04,57,6.30
2012,06,06,04,58,6.30
2012,06,06,04,59,6.30
2012,06,06,05,00,6.30
2012,06,06,05,01,6.30
2012,06,06,05,02,6.30
2012,06,06,05,03,6.30
2012,06,06,05,04,6.30
2012,06,06,05,05,6.20
2012,06,06,05,06,6.20
2012,06,06,05,07,6.20
2012,06,06,05,08,6.20
2012,06,06,05,09,6.10
2012,06,06,05,10,6.10
2012,06,06,05,11,6.20
2012,06,06,05,12,6.20
2012,06,06,05,13,6.10
2012,06,06,05,14,6.10
2012,06,06,05,15,6.10
2012,06,06,05,16,6.10
2012,06,06,05,17,6.10
2012,06,06,05,18,6.10
2012,06,06,05,19,6.10
2012,06,06,05,20,6.10
2012,06,06,05,21,6.20
2012,06,06,05,22,6.20
2012,06,06,05,23,6.30
2012,06,06,05,24,6.40
2012,06,06,05,25,6.40
2012,06,06,05,26,6.40
2012,06,06,05,27,6.40
2012,06,06,05,28,6.40
2012,06,06,05,29,6.40
2012,06,06,05,30,6.40
2012,06,06,05,31,6.40
2012,06,06,05,32,6.40
2012,06,06,05,33,6.60
2012,06,06,05,34,6.60
2012,06,06,05,35,6.60
2012,06,06,05,36,6.60
2012,06,06,05,37,6.70
2012,06,06,05,38,6.80
2012,06,06,05,39,6.80
2012,06,06,05,40,6.80
2012,06,06,05,41,6.90
2012,06,06,05,42,6.90
2012,06,06,05,43,6.90
2012,06,06,05,44,7.00
2012,06,06,05,45,7.00
2012,06,06,05,46,7.00
2012,06,06,05,47,7.10
2012,06,06,05,48,7.10
2012,06,06,05,49,7.10
2012,06,06,05,50,7.20
2012,06,06,05,51,7.20
2012,06,06,05,52,7.30
2012,06,06,05,53,7.30
2012,06,06,05,54,7.30
2012,06,06,05,55,7.30
2012,06,06,05,56,7.30
2012,06,06,05,57,7.40
2012,06,06,05,58,7.40
2012,06,06,05,59,7.40
2012,06,06,06,00,7.40
2012,06,06,06,01,7.50
2012,06,06,06,02,7.50
2012,06,06,06,03,7.50
2012,06,06,06,04,7.50
2012,06,06,06,05,7.50
2012,06,06,06,06,7.50
2012,06,06,06,07,7.50
2012,06,06,06,08,7.50
2012,06,06,06,09,7.50
2012,06,06,06,10,7.50
2012,06,06,06,11,7.50
2012,06,06,06,12,7.50
2012,06,06,06,13,7.50
2012,06,06,06,14,7.60
2012,06,06,06,15,7.60
2012,06,06,06,16,7.60
2012,06,06,06,17,7.70
2012,06,06,06,18,7.70
2012,06,06,06,19,7.70
2012,06,06,06,20,7.80
2012,06,06,06,21,7.80
2012,06,06,06,22,7.80
2012,06,06,06,23,7.90
2012,06,06,06,24,7.90
2012,06,06,06,25,8.00
2012,06,06,06,26,8.10
2012,06,06,06,27,8.20
2012,06,06,06,28,8.20
2012,06,06,06,29,8.20
2012,06,06,06,30,8.30
2012,06,06,06,31,8.30
2012,06,06,06,32,8.40
2012,06,06,06,33,8.50
2012,06,06,06,34,8.60
2012,06,06,06,35,8.60
2012,06,06,06,36,8.60
2012,06,06,06,37,8.70
2012,06,06,06,38,8.70
2012,06,06,06,39,8.80
2012,06,06,06,40,8.80
2012,06,06,06,41,8.90
2012,06,06,06,42,9.00
2012,06,06,06,43,9.00
2012,06,06,06,44,9.10
2012,06,06,06,45,9.20
2012,06,06,06,46,9.20
2012,06,06,06,47,9.20
2012,06,06,06,48,9.20
2012,06,06,06,49,9.30
2012,06,06,06,50,9.30
2012,06,06,06,51,9.40
2012,06,06,06,52,9.40
2012,06,06,06,53,9.50
2012,06,06,06,54,9.50
2012,06,06,06,55,9.60
2012,06,06,06,56,9.70
2012,06,06,06,57,9.70
2012,06,06,06,58,9.70
2012,06,06,06,59,9.80
2012,06,06,07,00,9.90
2012,06,06,07,01,9.90
2012,06,06,07,02,9.90
2012,06,06,07,03,9.90
2012,06,06,07,04,10.00
2012,06,06,07,05,10.10
2012,06,06,07,06,10.10
2012,06,06,07,07,10.10
2012,06,06,07,08,10.10
2012,06,06,07,09,10.10
2012,06,06,07,10,10.10
2012,06,06,07,11,10.10
2012,06,06,07,12,10.20
2012,06,06,07,13,10.20
2012,06,06,07,14,10.20
2012,06,06,07,15,10.20
2012,06,06,07,16,10.30
2012,06,06,07,17,10.30
2012,06,06,07,18,10.30
2012,06,06,07,19,10.40
2012,06,06,07,20,10.40
2012,06,06,07,21,10.40
2012,06,06,07,22,10.40
2012,06,06,07,23,10.60
2012,06,06,07,24,10.60
2012,06,06,07,25,10.60
2012,06,06,07,26,10.60
2012,06,06,07,27,10.70
2012,06,06,07,28,10.70
2012,06,06,07,29,10.80
2012,06,06,07,30,10.80
2012,06,06,07,31,10.90
2012,06,06,07,32,10.90
2012,06,06,07,33,10.90
2012,06,06,07,34,10.90
2012,06,06,07,35,11.00
2012,06,06,07,36,11.10
2012,06,06,07,37,11.10
2012,06,06,07,38,11.10
2012,06,06,07,39,11.10
2012,06,06,07,40,11.10
2012,06,06,07,41,11.10
2012,06,06,07,42,11.20
2012,06,06,07,43,11.20
2012,06,06,07,44,11.20
2012,06,06,07,45,11.20
2012,06,06,07,46,11.20
2012,06,06,07,47,11.10
2012,06,06,07,48,11.10
2012,06,06,07,49,11.10
2012,06,06,07,50,11.10
2012,06,06,07,51,11.20
2012,06,06,07,52,11.20
2012,06,06,07,53,11.20
2012,06,06,07,54,11.20
2012,06,06,07,55,11.20
2012,06,06,07,56,11.30
2012,06,06,07,57,11.30
2012,06,06,07,58,11.40
2012,06,06,07,59,11.50
2012,06,06,08,00,11.60
2012,06,06,08,01,11.60
2012,06,06,08,02,11.60
2012,06,06,08,03,11.60
2012,06,06,08,04,11.70
2012,06,06,08,05,11.70
2012,06,06,08,06,11.80
2012,06,06,08,07,11.80
2012,06,06,08,08,11.70
2012,06,06,08,09,11.70
2012,06,06,08,10,11.60
2012,06,06,08,11,11.60
2012,06,06,08,12,11.70
2012,06,06,08,13,11.80
2012,06,06,08,14,11.80
2012,06,06,08,15,11.80
2012,06,06,08,16,11.80
2012,06,06,08,17,11.80
2012,06,06,08,18,11.80
2012,06,06,08,19,11.80
2012,06,06,08,20,11.80
2012,06,06,08,21,11.80
2012,06,06,08,22,11.80
2012,06,06,08,23,11.80
2012,06,06,08,24,11.80
2012,06,06,08,25,11.80
2012,06,06,08,26,11.80
2012,06,06,08,27,11.80
2012,06,06,08,28,11.80
2012,06,06,08,29,11.80
2012,06,06,08,30,11.80
2012,06,06,08,31,11.80
2012,06,06,08,32,11.80
2012,06,06,08,33,11.80
2012,06,06,08,34,11.80
2012,06,06,08,35,11.80
2012,06,06,08,36,11.90
2012,06,06,08,37,11.90
2012,06,06,08,38,12.00
2012,06,06,08,39,12.00
2012,06,06,08,40,12.10
2012,06,06,08,41,12.20
2012,06,06,08,42,12.20
2012,06,06,08,43,12.20
2012,06,06,08,44,12.20
2012,06,06,08,45,12.20
2012,06,06,08,46,12.10
2012,06,06,08,47,12.10
2012,06,06,08,48,12.20
2012,06,06,08,49,12.30
2012,06,06,08,50,12.30
2012,06,06,08,51,12.40
2012,06,06,08,52,12.40
2012,06,06,08,53,12.40
2012,06,06,08,54,12.50
2012,06,06,08,55,12.60
2012,06,06,08,56,12.70
2012,06,06,08,57,12.80
2012,06,06,08,58,12.80
2012,06,06,08,59,12.80
2012,06,06,09,00,12.70
2012,06,06,09,01,12.60
2012,06,06,09,02,12.50
2012,06,06,09,03,12.50
2012,06,06,09,04,12.50
2012,06,06,09,05,12.50
2012,06,06,09,06,12.60
2012,06,06,09,07,12.60
2012,06,06,09,08,12.60
2012,06,06,09,09,12.60
2012,06,06,09,10,12.50
2012,06,06,09,11,12.50
2012,06,06,09,12,12.50
2012,06,06,09,13,12.40
2012,06,06,09,14,12.40
2012,06,06,09,15,12.40
2012,06,06,09,16,12.50
2012,06,06,09,17,12.60
2012,06,06,09,18,12.60
2012,06,06,09,19,12.50
2012,06,06,09,20,12.50
2012,06,06,09,21,12.40
2012,06,06,09,22,12.50
2012,06,06,09,23,12.50
2012,06,06,09,24,12.50
2012,06,06,09,25,12.50
2012,06,06,09,26,12.50
2012,06,06,09,27,12.50
2012,06,06,09,28,12.60
2012,06,06,09,29,12.60
2012,06,06,09,30,12.50
2012,06,06,09,31,12.50
2012,06,06,09,32,12.50
2012,06,06,09,33,12.60
2012,06,06,09,34,12.60
2012,06,06,09,35,12.70
2012,06,06,09,36,12.80
2012,06,06,09,37,12.90
2012,06,06,09,38,13.00
2012,06,06,09,39,13.00
2012,06,06,09,40,13.10
2012,06,06,09,41,13.20
2012,06,06,09,42,13.30
2012,06,06,09,43,13.40
2012,06,06,09,44,13.40
2012,06,06,09,45,13.50
2012,06,06,09,46,13.50
2012,06,06,09,47,13.50
2012,06,06,09,48,13.30
2012,06,06,09,49,13.10
2012,06,06,09,50,13.00
2012,06,06,09,51,12.90
2012,06,06,09,52,12.80
2012,06,06,09,53,12.80
2012,06,06,09,54,12.70
2012,06,06,09,55,12.50
2012,06,06,09,56,12.50
2012,06,06,09,57,12.40
2012,06,06,09,58,12.40
2012,06,06,09,59,12.40
2012,06,06,10,00,12.40
2012,06,06,10,01,12.50
2012,06,06,10,02,12.50
2012,06,06,10,03,12.50
2012,06,06,10,04,12.50
2012,06,06,10,05,12.40
2012,06,06,10,06,12.40
2012,06,06,10,07,12.40
2012,06,06,10,08,12.30
2012,06,06,10,09,12.30
2012,06,06,10,10,12.30
2012,06,06,10,11,12.30
2012,06,06,10,12,12.30
2012,06,06,10,13,12.30
2012,06,06,10,14,12.30
2012,06,06,10,15,12.40
2012,06,06,10,16,12.40
2012,06,06,10,17,12.30
2012,06,06,10,18,12.40
2012,06,06,10,19,12.50
2012,06,06,10,20,12.50
2012,06,06,10,21,12.40
2012,06,06,10,22,12.40
2012,06,06,10,23,12.50
2012,06,06,10,24,12.50
2012,06,06,10,25,12.60
2012,06,06,10,26,12.70
2012,06,06,10,27,12.70
2012,06,06,10,28,12.60
2012,06,06,10,29,12.60
2012,06,06,10,30,12.60
2012,06,06,10,31,12.60
2012,06,06,10,32,12.50
2012,06,06,10,33,12.40
2012,06,06,10,34,12.40
2012,06,06,10,35,12.30
2012,06,06,10,36,12.30
2012,06,06,10,37,12.30
2012,06,06,10,38,12.30
2012,06,06,10,39,12.40
2012,06,06,10,40,12.50
2012,06,06,10,41,12.60
2012,06,06,10,42,12.60
2012,06,06,10,43,12.60
2012,06,06,10,44,12.60
2012,06,06,10,45,12.50
2012,06,06,10,46,12.50
2012,06,06,10,47,12.60
2012,06,06,10,48,12.60
2012,06,06,10,49,12.50
2012,06,06,10,50,12.50
2012,06,06,10,51,12.50
2012,06,06,10,52,12.40
2012,06,06,10,53,12.50
2012,06,06,10,54,12.60
2012,06,06,10,55,12.60
2012,06,06,10,56,12.60
2012,06,06,10,57,12.70
2012,06,06,10,58,12.80
2012,06,06,10,59,12.80
2012,06,06,11,00,12.80
2012,06,06,11,01,12.80
2012,06,06,11,02,12.80
2012,06,06,11,03,12.80
2012,06,06,11,04,12.70
2012,06,06,11,05,12.70
2012,06,06,11,06,12.60
2012,06,06,11,07,12.50
2012,06,06,11,08,12.50
2012,06,06,11,09,12.50
2012,06,06,11,10,12.40
2012,06,06,11,11,12.30
2012,06,06,11,12,12.40
2012,06,06,11,13,12.50
2012,06,06,11,14,12.60
2012,06,06,11,15,12.70
2012,06,06,11,16,12.80
2012,06,06,11,17,12.80
2012,06,06,11,18,12.80
2012,06,06,11,19,12.80
2012,06,06,11,20,12.80
2012,06,06,11,21,12.80
2012,06,06,11,22,12.90
2012,06,06,11,23,12.90
2012,06,06,11,24,12.90
2012,06,06,11,25,12.90
2012,06,06,11,26,12.90
2012,06,06,11,27,13.00
2012,06,06,11,28,13.00
2012,06,06,11,29,13.10
2012,06,06,11,30,13.20
2012,06,06,11,31,13.30
2012,06,06,11,32,13.30
2012,06,06,11,33,13.30
2012,06,06,11,34,13.30
2012,06,06,11,35,13.30
2012,06,06,11,36,13.30
2012,06,06,11,37,13.30
2012,06,06,11,38,13.30
2012,06,06,11,39,13.30
2012,06,06,11,40,13.30
2012,06,06,11,41,13.30
2012,06,06,11,42,13.30
2012,06,06,11,43,13.40
2012,06,06,11,44,13.50
2012,06,06,11,45,13.60
2012,06,06,11,46,13.60
2012,06,06,11,47,13.50
2012,06,06,11,48,13.50
2012,06,06,11,49,13.50
2012,06,06,11,50,13.50
2012,06,06,11,51,13.60
2012,06,06,11,52,13.70
2012,06,06,11,53,13.80
2012,06,06,11,54,13.90
2012,06,06,11,55,14.00
2012,06,06,11,56,14.00
2012,06,06,11,57,14.00
2012,06,06,11,58,13.90
2012,06,06,11,59,13.90
2012,06,06,12,00,13.80
2012,06,06,12,01,13.70
2012,06,06,12,02,13.70
2012,06,06,12,03,13.60
2012,06,06,12,04,13.60
2012,06,06,12,05,13.60
2012,06,06,12,06,13.60
2012,06,06,12,07,13.60
2012,06,06,12,08,13.60
2012,06,06,12,09,13.70
2012,06,06,12,10,13.70
2012,06,06,12,11,13.70
2012,06,06,12,12,13.70
2012,06,06,12,13,13.70
2012,06,06,12,14,13.70
2012,06,06,12,15,13.70
2012,06,06,12,16,13.70
2012,06,06,12,17,13.80
2012,06,06,12,18,13.80
2012,06,06,12,19,13.80
2012,06,06,12,20,13.80
2012,06,06,12,21,13.80
2012,06,06,12,22,13.70
2012,06,06,12,23,13.60
2012,06,06,12,24,13.50
2012,06,06,12,25,13.40
2012,06,06,12,26,13.40
2012,06,06,12,27,13.40
2012,06,06,12,28,13.50
2012,06,06,12,29,13.50
2012,06,06,12,30,13.60
2012,06,06,12,31,13.60
2012,06,06,12,32,13.60
2012,06,06,12,33,13.70
2012,06,06,12,34,13.70
2012,06,06,12,35,13.70
2012,06,06,12,36,13.70
2012,06,06,12,37,13.70
2012,06,06,12,38,13.70
2012,06,06,12,39,13.70
2012,06,06,12,40,13.70
2012,06,06,12,41,13.60
2012,06,06,12,42,13.60
2012,06,06,12,43,13.60
2012,06,06,12,44,13.70
2012,06,06,12,45,13.70
2012,06,06,12,46,13.70
2012,06,06,12,47,13.70
2012,06,06,12,48,13.60
2012,06,06,12,49,13.60
2012,06,06,12,50,13.60
2012,06,06,12,51,13.50
2012,06,06,12,52,13.40
2012,06,06,12,53,13.30
2012,06,06,12,54,13.30
2012,06,06,12,55,13.30
2012,06,06,12,56,13.30
2012,06,06,12,57,13.30
2012,06,06,12,58,13.30
2012,06,06,12,59,13.30
2012,06,06,13,00,13.30
2012,06,06,13,01,13.30
2012,06,06,13,02,13.40
2012,06,06,13,03,13.50
2012,06,06,13,04,13.70
2012,06,06,13,05,13.80
2012,06,06,13,06,13.90
2012,06,06,13,07,14.00
2012,06,06,13,08,14.10
2012,06,06,13,09,14.10
2012,06,06,13,10,14.10
2012,06,06,13,11,14.10
2012,06,06,13,12,14.20
2012,06,06,13,13,14.20
2012,06,06,13,14,14.10
2012,06,06,13,15,14.00
2012,06,06,13,16,13.90
2012,06,06,13,17,13.80
2012,06,06,13,18,13.70
2012,06,06,13,19,13.70
2012,06,06,13,20,13.80
2012,06,06,13,21,13.80
2012,06,06,13,22,13.90
2012,06,06,13,23,13.90
2012,06,06,13,24,14.00
2012,06,06,13,25,14.20
2012,06,06,13,26,14.30
2012,06,06,13,27,14.30
2012,06,06,13,28,14.40
2012,06,06,13,29,14.40
2012,06,06,13,30,14.30
2012,06,06,13,31,14.20
2012,06,06,13,32,14.20
2012,06,06,13,33,14.20
2012,06,06,13,34,14.20
2012,06,06,13,35,14.20
2012,06,06,13,36,14.10
2012,06,06,13,37,14.10
2012,06,06,13,38,14.10
2012,06,06,13,39,14.20
2012,06,06,13,40,14.30
2012,06,06,13,41,14.40
2012,06,06,13,42,14.50
2012,06,06,13,43,14.60
2012,06,06,13,44,14.80
2012,06,06,13,45,14.90
2012,06,06,13,46,14.90
2012,06,06,13,47,14.90
2012,06,06,13,48,14.80
2012,06,06,13,49,14.80
2012,06,06,13,50,14.70
2012,06,06,13,51,14.70
2012,06,06,13,52,14.70
2012,06,06,13,53,14.60
2012,06,06,13,54,14.60
2012,06,06,13,55,14.50
2012,06,06,13,56,14.40
2012,06,06,13,57,14.40
2012,06,06,13,58,14.30
2012,06,06,13,59,14.20
2012,06,06,14,00,14.20
2012,06,06,14,01,14.10
2012,06,06,14,02,14.00
2012,06,06,14,03,14.00
2012,06,06,14,04,13.90
2012,06,06,14,05,13.80
2012,06,06,14,06,13.80
2012,06,06,14,07,13.80
2012,06,06,14,08,13.70
2012,06,06,14,09,13.70
2012,06,06,14,10,13.70
2012,06,06,14,11,13.60
2012,06,06,14,12,13.60
2012,06,06,14,13,13.60
2012,06,06,14,14,13.50
2012,06,06,14,15,13.50
2012,06,06,14,16,13.60
2012,06,06,14,17,13.60
2012,06,06,14,18,13.60
2012,06,06,14,19,13.60
2012,06,06,14,20,13.70
2012,06,06,14,21,13.70
2012,06,06,14,22,13.70
2012,06,06,14,23,13.70
2012,06,06,14,24,13.70
2012,06,06,14,25,13.60
2012,06,06,14,26,13.50
2012,06,06,14,27,13.50
2012,06,06,14,28,13.50
2012,06,06,14,29,13.50
2012,06,06,14,30,13.50
2012,06,06,14,31,13.40
2012,06,06,14,32,13.40
2012,06,06,14,33,13.40
2012,06,06,14,34,13.30
2012,06,06,14,35,13.30
2012,06,06,14,36,13.30
2012,06,06,14,37,13.20
2012,06,06,14,38,13.20
2012,06,06,14,39,13.10
2012,06,06,14,40,13.10
2012,06,06,14,41,13.10
2012,06,06,14,42,13.10
2012,06,06,14,43,13.10
2012,06,06,14,44,13.10
2012,06,06,14,45,13.10
2012,06,06,14,46,13.20
2012,06,06,14,47,13.20
2012,06,06,14,48,13.20
2012,06,06,14,49,13.20
2012,06,06,14,50,13.30
2012,06,06,14,51,13.30
2012,06,06,14,52,13.30
2012,06,06,14,53,13.40
2012,06,06,14,54,13.50
2012,06,06,14,55,13.50
2012,06,06,14,56,13.50
2012,06,06,14,57,13.50
2012,06,06,14,58,13.50
2012,06,06,14,59,13.40
2012,06,06,15,00,13.50
2012,06,06,15,01,13.50
2012,06,06,15,02,13.60
2012,06,06,15,03,13.60
2012,06,06,15,04,13.60
2012,06,06,15,05,13.60
2012,06,06,15,06,13.60
2012,06,06,15,07,13.60
2012,06,06,15,08,13.70
2012,06,06,15,09,13.60
2012,06,06,15,10,13.70
2012,06,06,15,11,13.70
2012,06,06,15,12,13.70
2012,06,06,15,13,13.70
2012,06,06,15,14,13.70
2012,06,06,15,15,13.70
2012,06,06,15,16,13.70
2012,06,06,15,17,13.70
2012,06,06,15,18,13.70
2012,06,06,15,19,13.70
2012,06,06,15,20,13.70
2012,06,06,15,21,13.70
2012,06,06,15,22,13.70
2012,06,06,15,23,13.70
2012,06,06,15,24,13.80
2012,06,06,15,25,13.80
2012,06,06,15,26,13.80
2012,06,06,15,27,13.80
2012,06,06,15,28,13.80
2012,06,06,15,29,13.80
2012,06,06,15,30,13.90
2012,06,06,15,31,14.10
2012,06,06,15,32,14.20
2012,06,06,15,33,14.30
2012,06,06,15,34,14.20
2012,06,06,15,35,14.20
2012,06,06,15,36,14.20
2012,06,06,15,37,14.20
2012,06,06,15,38,14.20
2012,06,06,15,39,14.20
2012,06,06,15,40,14.20
2012,06,06,15,41,14.20
2012,06,06,15,42,14.20
2012,06,06,15,43,14.20
2012,06,06,15,44,14.20
2012,06,06,15,45,14.20
2012,06,06,15,46,14.20
2012,06,06,15,47,14.20
2012,06,06,15,48,14.20
2012,06,06,15,49,14.20
2012,06,06,15,50,14.20
2012,06,06,15,51,14.20
2012,06,06,15,52,14.20
2012,06,06,15,53,14.20
2012,06,06,15,54,14.20
2012,06,06,15,55,14.20
2012,06,06,15,56,14.20
2012,06,06,15,57,14.20
2012,06,06,15,58,14.30
2012,06,06,15,59,14.20
2012,06,06,16,00,14.20
2012,06,06,16,01,14.20
2012,06,06,16,02,14.30
2012,06,06,16,03,14.30
2012,06,06,16,04,14.50
2012,06,06,16,05,14.50
2012,06,06,16,06,14.70
2012,06,06,16,07,14.80
2012,06,06,16,08,14.70
2012,06,06,16,09,14.60
2012,06,06,16,10,14.60
2012,06,06,16,11,14.50
2012,06,06,16,12,14.50
2012,06,06,16,13,14.40
2012,06,06,16,14,14.30
2012,06,06,16,15,14.20
2012,06,06,16,16,14.20
2012,06,06,16,17,14.20
2012,06,06,16,18,14.20
2012,06,06,16,19,14.30
2012,06,06,16,20,14.30
2012,06,06,16,21,14.40
2012,06,06,16,22,14.40
2012,06,06,16,23,14.40
2012,06,06,16,24,14.50
2012,06,06,16,25,14.50
2012,06,06,16,26,14.60
2012,06,06,16,27,14.60
2012,06,06,16,28,14.60
2012,06,06,16,29,14.60
2012,06,06,16,30,14.50
2012,06,06,16,31,14.50
2012,06,06,16,32,14.50
2012,06,06,16,33,14.40
2012,06,06,16,34,14.40
2012,06,06,16,35,14.20
2012,06,06,16,36,14.20
2012,06,06,16,37,14.20
2012,06,06,16,38,14.20
2012,06,06,16,39,14.10
2012,06,06,16,40,14.10
2012,06,06,16,41,14.10
2012,06,06,16,42,14.10
2012,06,06,16,43,14.10
2012,06,06,16,44,14.10
2012,06,06,16,45,14.20
2012,06,06,16,46,14.20
2012,06,06,16,47,14.10
2012,06,06,16,48,14.10
2012,06,06,16,49,14.00
2012,06,06,16,50,14.00
2012,06,06,16,51,14.00
2012,06,06,16,52,14.00
2012,06,06,16,53,13.90
2012,06,06,16,54,13.90
2012,06,06,16,55,13.80
2012,06,06,16,56,13.70
2012,06,06,16,57,13.60
2012,06,06,16,58,13.60
2012,06,06,16,59,13.60
2012,06,06,17,00,13.50
2012,06,06,17,01,13.60
2012,06,06,17,02,13.60
2012,06,06,17,03,13.60
2012,06,06,17,04,13.60
2012,06,06,17,05,13.60
2012,06,06,17,06,13.60
2012,06,06,17,07,13.60
2012,06,06,17,08,13.60
2012,06,06,17,09,13.60
2012,06,06,17,10,13.60
2012,06,06,17,11,13.60
2012,06,06,17,12,13.60
2012,06,06,17,13,13.60
2012,06,06,17,14,13.60
2012,06,06,17,15,13.60
2012,06,06,17,16,13.60
2012,06,06,17,17,13.60
2012,06,06,17,18,13.60
2012,06,06,17,19,13.60
2012,06,06,17,20,13.50
2012,06,06,17,21,13.50
2012,06,06,17,22,13.50
2012,06,06,17,23,13.50
2012,06,06,17,24,13.50
2012,06,06,17,25,13.50
2012,06,06,17,26,13.50
2012,06,06,17,27,13.50
2012,06,06,17,28,13.60
2012,06,06,17,29,13.70
2012,06,06,17,30,13.70
2012,06,06,17,31,13.70
2012,06,06,17,32,13.70
2012,06,06,17,33,13.70
2012,06,06,17,34,13.70
2012,06,06,17,35,13.70
2012,06,06,17,36,13.70
2012,06,06,17,37,13.70